Regional Weather Roundup
Issued by NWS Bismarck, ND

Home | Current Version | Previous Version | Text Only | Print | Product List | Glossary On
Versions: 1 2 3 4 5 6 7 8 9 10 11 12 13 14 15 16 17 18 19 20 21 22 23 24 25 26 27 28 29 30 31 32 33 34 35 36 37 38 39 40 41 42 43 44 45 46 47 48 49 50
239
ASUS43 KBIS 270710
RWRBIS

NWR BROADCAST TEXT
NATIONAL WEATHER SERVICE BISMARCK ND
200 AM CDT TUE JUN 27 2017

NOTE: "FAIR" INDICATES FEW OR NO CLOUDS BELOW 12,000 FEET WITH NO
SIGNIFICANT WEATHER AND/OR OBSTRUCTIONS TO VISIBILITY.


CITY           SKY/WX    TMP DP  RH WIND       PRES   REMARKS
WILLISTON      CLOUDY    70  42  36 S13G18    29.80F
MINOT          CLOUDY    64  40  41 S14       29.87F
MINOT AFB      CLOUDY    62  41  45 S13       29.85F
BISMARCK       CLOUDY    62  39  42 S14       29.96F
DICKINSON      CLOUDY    61  37  41 S23G32    29.87F
GARRISON         N/A     61  41  47 S14       29.90F
HETTINGER ARPT CLOUDY    61  37  41 SE17G26   29.94F
JAMESTOWN      CLEAR     53  39  59 S12       30.01F
HAZEN          FAIR      64  37  36 S26G36    29.90F
LINTON         FAIR     N/A N/A N/A SE15      30.00F
MANDAN         FAIR      59  37  44 S15G23    29.96F
STANLEY        FAIR      61  45  55 S13       29.88F
TIOGA          FAIR      63  43  48 S15       29.85F
WATFORD CITY   FAIR      66  41  39 S16G24    29.82F
$$

CITY           SKY/WX    TMP DP  RH WIND       PRES   REMARKS
GRAND FORKS    CLEAR     50  43  77 S6        29.98F
GRAND FORKS AF CLEAR     50  40  70 S9        29.98F
DEVILS LAKE    CLEAR     60  41  49 S13       29.98F
FARGO          CLEAR     54  40  59 S10       30.03F
CAVALIER       FAIR      50  45  81 S5        29.96F
GRAFTON        FAIR      46  41  81 S9        29.98F
GWINNER        CLOUDY    50  43  76 S9        30.05F
LANGDON        FAIR      50  45  81 S10       29.97F
ROLLA            N/A     48  45  87 S8        29.95F
$$

CITY           SKY/WX    TMP DP  RH WIND       PRES   REMARKS
ABERDEEN       CLEAR     45  41  86 S10       30.06F
MOBRIDGE       CLEAR     61  38  42 S16       29.98F
BUFFALO          N/A     62  39  42 SE22G33   29.82F
RAPID CITY     PTCLDY    56  40  55 SE12      29.97F
GLASGOW        CLOUDY    73  40  30 E12       29.67F
SIDNEY         CLOUDY    69  42  37 S13       29.79F
WOLF POINT     CLOUDY    76  39  26 E8        29.72F
GLENDIVE       PTCLDY    70  40  33 S18       29.79F
MILES CITY     CLOUDY    72  38  29 S16G22    29.73F
BAKER          MOCLDY    65  38  36 SE26G35   29.84F
$$

CITY           SKY/WX    TMP DP  RH WIND       PRES   REMARKS
BILLINGS       CLOUDY    77  41  27 SW9       29.75F
GREAT FALLS    CLOUDY    69  47  45 SW9       29.78R
REGINA         PTCLDY    59  45  58 SE18G24   29.71F
ESTEVAN        PTCLDY    61  45  55 SE13      29.79F
$$





USA.gov is the U.S. government's official web portal to all federal, state and local government web resources and services.